Location: Newark
(34.6283°N, 36.0776°E)
Time: 10:59:50
(UTC+00:00)

A-11 Canister half - Pass Details

Date: 19 September 2019
Orbit: 1527 x 1682 km, 47.3° (Epoch: 20 October)

Event Time Altitude Azimuth Distance (km) Brightness Sun altitude
Rises 06:53:56 0° 302° (WNW) 4,788 11.1 40.9°
Reaches altitude 10° 06:57:06 10° 307° (NW) 3,823 10.7 41.5°
Maximum altitude 07:06:43 57° 25° (NNE) 1,881 10.0 43.1°
Drops below altitude 10° 07:16:35 10° 103° (ESE) 3,922 12.0 44.7°
Sets 07:19:52 0° 107° (ESE) 4,919 12.3 45.2°
